Location: Unspecified
(50.7693°N, 0.0000°E)
Time: 11:30:56
(UTC+00:00)

Transit 2A - Pass Details

Date: 03 July 2019
Orbit: 594 x 964 km, 66.7° (Epoch: 20 July)

Event Time Altitude Azimuth Distance (km) Brightness Sun altitude
Rises 08:03:00 0° 309° (NW) 3,353 8.9 36.2°
Reaches altitude 10° 08:07:37 10° 274° (W) 2,303 8.1 36.9°
Maximum altitude 08:08:52 11° 260° (W) 2,214 8.0 37.1°
Drops below altitude 10° 08:10:06 10° 246° (WSW) 2,239 8.1 37.3°
Sets 08:14:20 0° 210° (SSW) 3,049 8.9 38.0°
